CW0677 Weather Reports


Display with metric or nautical units.
time (UTC)temp
F
wind
direction
speed
MPH
gust
MPH
rain 1hr
in
rain 24hr
in
rain mn
in
humidity
%
barometer
mb
20260906001617 75 252 4.0 11.0 0.00 0.00 0.00 45 1013.8
20260905234600 77 312 4.0 13.0 0.00 0.00 0.00 42 1013.5
20260905233111 76 286 7.0 12.0 0.00 0.00 0.00 41 1013.4
20260905231602 77 266 7.0 14.0 0.00 0.00 0.00 39 1013.5
20260905230103 76 214 6.0 16.0 0.00 0.00 0.00 40 1013.8
20260905224608 76 260 9.0 14.0 0.00 0.00 0.00 41 1014.1
20260905223101 77 239 6.0 15.0 0.00 0.00 0.00 42 1014.1
20260905221602 76 170 8.0 16.0 0.00 0.00 0.00 42 1014.0
20260905220105 77 271 8.0 14.0 0.00 0.00 0.00 47 1014.1
20260905214600 77 216 7.0 14.0 0.00 0.00 0.00 41 1014.2
20260905213108 78 250 4.0 14.0 0.00 0.00 0.00 42 1014.2
20260905211605 77 298 5.0 14.0 0.00 0.00 0.00 43 1014.2
20260905210110 77 242 7.0 15.0 0.00 0.00 0.00 46 1014.3
20260905204556 77 211 6.0 11.0 0.00 0.00 0.00 46 1014.1
20260905203102 78 260 5.0 9.0 0.00 0.00 0.00 45 1014.1
20260905201609 76 300 6.0 10.0 0.00 0.00 0.00 46 1014.2
20260905200142 76 286 2.0 10.0 0.00 0.00 0.00 52 1014.2
20260905194614 75 0 4.0 7.0 0.00 0.00 0.00 50 1014.3
20260905193107 74 0 2.0 7.0 0.00 0.00 0.00 52 1014.4
20260905191601 74 234 1.0 7.0 0.00 0.00 0.00 55 1014.7
20260905190104 73 221 3.0 9.0 0.00 0.00 0.00 58 1014.7
20260905184611 71 243 1.0 6.0 0.00 0.00 0.00 62 1014.7
20260905183112 70 168 1.0 7.0 0.00 0.00 0.00 63 1014.9
20260905181607 69 257 1.0 7.0 0.00 0.00 0.00 66 1014.8
20260905180116 68 255 3.0 8.0 0.00 0.00 0.00 69 1014.9
20260905174608 67 238 1.0 6.0 0.00 0.00 0.00 69 1014.9
20260905173106 64 343 2.0 7.0 0.00 0.00 0.00 74 1015.0
20260905171608 63 0 1.0 5.0 0.00 0.00 0.00 79 1014.9
20260905170104 62 319 3.0 5.0 0.00 0.00 0.00 80 1014.9
20260905164604 61 0 0.0 3.0 0.00 0.00 0.00 82 1014.9
20260905163103 58 0 1.0 4.0 0.00 0.00 0.00 88 1014.9
20260905161615 57 0 1.0 7.0 0.00 0.00 0.00 92 1014.9
20260905160106 55 297 1.0 4.0 0.00 0.00 0.00 93 1014.9
20260905154606 53 257 1.0 5.0 0.00 0.00 0.00 93 1014.9
20260905153105 54 259 0.0 3.0 0.00 0.00 0.00 93 1014.8
20260905151603 53 324 0.0 2.0 0.00 0.00 0.00 93 1014.7
20260905150107 53 0 0.0 0.0 0.00 0.00 0.00 94 1014.5
20260905144601 52 0 0.0 0.0 0.00 0.00 0.00 94 1014.6
20260905143105 51 0 0.0 0.0 0.00 0.00 0.00 93 1014.7
20260905141601 51 0 0.0 0.0 0.00 0.00 0.00 93 1014.5
20260905140109 50 0 0.0 0.0 0.00 0.00 0.00 93 1014.5
20260905134606 50 0 0.0 0.0 0.00 0.00 0.00 93 1014.3
20260905133103 50 0 0.0 0.0 0.00 0.00 0.00 93 1014.4
20260905131603 50 0 0.0 0.0 0.00 0.00 0.00 93 1014.3
20260905130110 50 0 0.0 0.0 0.00 0.00 0.00 93 1014.3
20260905124601 51 0 0.0 0.0 0.00 0.00 0.00 93 1014.2
20260905123108 51 0 0.0 0.0 0.00 0.00 0.00 93 1014.1
20260905121604 51 0 0.0 0.0 0.00 0.00 0.00 92 1014.1
20260905120105 51 0 0.0 0.0 0.00 0.00 0.00 92 1014.2
20260905114611 51 0 0.0 0.0 0.00 0.00 0.00 92 1014.2
20260905113108 52 0 0.0 0.0 0.00 0.00 0.00 92 1014.4
20260905111613 52 0 0.0 0.0 0.00 0.00 0.00 92 1014.4
20260905104558 52 0 0.0 0.0 0.00 0.00 0.00 91 1014.3
20260905103104 53 0 0.0 0.0 0.00 0.00 0.00 91 1014.3
20260905101602 53 0 0.0 0.0 0.00 0.00 0.00 91 1014.3
20260905100107 53 0 0.0 0.0 0.00 0.00 0.00 91 1014.3
20260905094609 53 0 0.0 0.0 0.00 0.00 0.00 91 1014.5
20260905093102 54 0 0.0 0.0 0.00 0.00 0.00 91 1014.6
20260905091609 54 0 0.0 0.0 0.00 0.00 0.00 90 1014.6
20260905090058 54 0 0.0 0.0 0.00 0.00 0.00 90 1014.6
20260905084604 55 0 0.0 0.0 0.00 0.00 0.00 90 1014.6
20260905083102 55 0 0.0 0.0 0.00 0.00 0.00 90 1014.6
20260905081620 55 0 0.0 0.0 0.00 0.00 0.00 90 1014.7
20260905080105 56 0 0.0 0.0 0.00 0.00 0.00 89 1014.6
20260905074603 56 0 0.0 0.0 0.00 0.00 0.00 89 1014.7
20260905073105 57 0 0.0 0.0 0.00 0.00 0.00 89 1014.7
20260905071603 57 0 0.0 0.0 0.00 0.00 0.00 88 1014.6
20260905070105 58 0 0.0 0.0 0.00 0.00 0.00 88 1014.6
20260905064604 58 0 0.0 0.0 0.00 0.00 0.00 87 1014.6
20260905063118 58 0 0.0 0.0 0.00 0.00 0.00 87 1014.5
20260905061613 59 0 0.0 0.0 0.00 0.00 0.00 86 1014.5
20260905060106 59 0 0.0 2.0 0.00 0.00 0.00 86 1014.5
20260905054604 59 0 0.0 3.0 0.00 0.00 0.00 85 1014.6
20260905053104 60 0 1.0 3.0 0.00 0.00 0.00 85 1014.7
20260905051603 60 0 0.0 3.0 0.00 0.00 0.00 84 1014.7
20260905050106 60 189 0.0 3.0 0.00 0.00 0.00 83 1014.7
20260905044603 61 0 0.0 4.0 0.00 0.00 0.00 82 1014.7
20260905043132 61 192 1.0 4.0 0.00 0.00 0.00 81 1014.6
20260905041604 61 0 1.0 4.0 0.00 0.00 0.00 80 1014.5
20260905040122 62 163 1.0 5.0 0.00 0.00 0.00 78 1014.5
20260905034601 62 153 2.0 5.0 0.00 0.00 0.00 76 1014.3
20260905033102 63 192 1.0 5.0 0.00 0.00 0.00 74 1014.2
20260905031601 64 192 0.0 4.0 0.00 0.00 0.00 71 1014.1
20260905030101 64 236 0.0 3.0 0.00 0.00 0.00 68 1014.0
20260905024601 65 205 1.0 4.0 0.00 0.00 0.00 67 1014.0
20260905023105 66 217 2.0 5.0 0.00 0.00 0.00 65 1014.0
20260905021602 67 201 4.0 9.0 0.00 0.00 0.00 64 1013.9
20260905014604 69 295 4.0 11.0 0.00 0.00 0.00 60 1013.9
20260905013103 69 275 5.0 11.0 0.00 0.00 0.00 57 1013.8
20260905011559 70 278 4.0 12.0 0.00 0.00 0.00 56 1013.8
20260905010108 71 321 4.0 11.0 0.00 0.00 0.00 56 1013.6
20260905004616 71 257 7.0 13.0 0.00 0.01 0.00 56 1013.6
20260905003103 71 315 6.0 14.0 0.00 0.01 0.00 54 1013.6